Weather History for Mullan Pass, ID

Change the Weather History Date:

Sunday, July 7, 2013

  Actual Average (K3TH) Record (K3TH)
Temperature  
Mean Temperature 63 °F -  
Max Temperature 73 °F 81 °F 93 °F (1998)
Min Temperature 55 °F 55 °F 50 °F (1996)
Degree Days  
Heating Degree Days 2    
Growing Degree Days 13 (Base 50)    
Moisture  
Dew Point 40 °F    
Average Humidity 44    
Maximum Humidity 57    
Minimum Humidity 30    
Precipitation  
Precipitation 0.00 in - - ()
Sea Level Pressure  
Sea Level Pressure 29.75 in    
Wind  
Wind Speed 2 mph (NW)    
Max Wind Speed 7 mph    
Max Gust Speed -    
Visibility 10 miles    
Events      
Averages and records for this station are not official NWS values.
T = Trace of Precipitation, MM = Missing Value Source: NWS Daily Summary

Daily Weather History Graph

Daily Weather History Graph

Search for Another Location

Airport:

Trip Planner

Search our weather history database for the weather conditions in past years. The results will help you decide how hot, cold, wet, or windy it might be!

Date:

Astronomy

Jul. 07, 2013 Rise Set
Actual Time 4:54 AM PDT 8:40 PM PDT
Civil Twilight 4:14 AM PDT 9:20 PM PDT
Nautical Twilight 3:20 AM PDT 10:13 PM PDT
Astronomical Twilight 2:02 AM PDT 11:31 PM PDT
Moon 4:38 AM PDT (7/7) 8:01 PM PDT (7/7)
Length of Visible Light 17h 05m
Length of Day
15h 46m
Waning Crescent, 0% of the Moon is Illuminated
Jul 7
Waning Crescent
Jul 8
New
Jul 15
First Quarter
Jul 22
Full
Jul 29
Last Quarter

Hourly Weather History & Observations

Time (PDT) Temp. Dew Point Humidity Pressure Visibility Wind Dir Wind Speed Gust Speed Precip Events Conditions
12:53 AM 55.0 °F 39.9 °F 57% 29.76 in 10.0 mi North 3.5 mph - N/A   Clear
1:53 AM 55.0 °F 39.9 °F 57% 29.74 in 10.0 mi Variable 4.6 mph - N/A   Clear
2:53 AM 55.9 °F 39.0 °F 53% 29.74 in 10.0 mi Calm Calm - N/A   Clear
3:53 AM 55.9 °F 39.0 °F 53% 29.73 in 10.0 mi Calm Calm - N/A   Clear
4:53 AM 55.9 °F 39.0 °F 53% 29.73 in 10.0 mi Calm Calm - N/A   Clear
5:53 AM 55.9 °F 39.0 °F 53% 29.74 in 10.0 mi Calm Calm - N/A   Clear
6:53 AM 57.9 °F 39.9 °F 51% 29.75 in 10.0 mi Calm Calm - N/A   Clear
7:53 AM 59.0 °F 42.1 °F 53% 29.77 in 10.0 mi Calm Calm - N/A   Clear
8:53 AM 62.1 °F 43.0 °F 50% 29.78 in 10.0 mi Calm Calm - N/A   Clear
9:53 AM 62.1 °F 42.1 °F 48% 29.78 in 10.0 mi Calm Calm - N/A   Scattered Clouds
10:53 AM 64.0 °F 43.0 °F 46% 29.79 in 10.0 mi North 4.6 mph - N/A   Clear
11:53 AM 66.0 °F 42.1 °F 42% 29.78 in 10.0 mi NNW 6.9 mph - N/A   Clear
12:53 PM 68.0 °F 42.1 °F 39% 29.77 in 10.0 mi NNW 4.6 mph - N/A   Clear
1:53 PM 71.1 °F 41.0 °F 34% 29.76 in 10.0 mi Variable 4.6 mph - N/A   Clear
2:53 PM 70.0 °F 39.9 °F 33% 29.75 in 10.0 mi Variable 4.6 mph - N/A   Clear
3:53 PM 71.1 °F 39.0 °F 31% 29.74 in 10.0 mi Calm Calm - N/A   Clear
4:53 PM 71.1 °F 37.9 °F 30% 29.73 in 10.0 mi Calm Calm - N/A   Clear
5:53 PM 71.1 °F 37.9 °F 30% 29.73 in 10.0 mi Calm Calm - N/A   Clear
6:53 PM 69.1 °F 37.9 °F 32% 29.73 in 10.0 mi Calm Calm - N/A   Clear
7:53 PM 66.0 °F 39.9 °F 38% 29.73 in 10.0 mi NNW 4.6 mph - N/A   Clear
8:53 PM 61.0 °F 37.0 °F 41% 29.75 in 10.0 mi NW 5.8 mph - N/A   Clear
9:53 PM 61.0 °F 37.9 °F 42% 29.76 in 10.0 mi WNW 5.8 mph - N/A   Clear
10:53 PM 60.1 °F 37.9 °F 44% 29.76 in 10.0 mi NW 4.6 mph - N/A   Clear
11:53 PM 61.0 °F 37.0 °F 41% 29.75 in 10.0 mi WSW 3.5 mph - N/A   Clear